Fort Worth, TX

10:23 PM CDT on July 23, 2017 (GMT -0500)
Fort Worth Meacham International

Weather History for KFTW - July, 2013

Change the Weather History Date:

Saturday, July 27, 2013

  Actual Average Record
Temperature  
Mean Temperature 80 °F -  
Max Temperature 90 °F 96 °F 105 °F (1998)
Min Temperature 71 °F 74 °F 70 °F (2004)
Cooling Degree Days 15    
Growing Degree Days 30 (Base 50)    
Moisture  
Dew Point 67 °F    
Average Humidity 72    
Maximum Humidity 94    
Minimum Humidity 39    
Precipitation  
Precipitation 0.00 in - - ()
Sea Level Pressure  
Sea Level Pressure 29.97 in    
Wind  
Wind Speed 10 mph (NE)    
Max Wind Speed 14 mph    
Max Gust Speed 16 mph    
Visibility 10 miles    
Events      
Averages and records for this station are not official NWS values.
T = Trace of Precipitation, MM = Missing Value Source: NWS Daily Summary

Daily Weather History Graph

Daily Weather History Graph

Search for Another Location

Airport or City:

Trip Planner

Search our weather history database for the weather conditions in past years. The results will help you decide how hot, cold, wet, or windy it might be!

Date:

Astronomy

Jul. 27, 2013 Rise Set
Actual Time 6:40 AM CDT 8:31 PM CDT
Civil Twilight 6:12 AM CDT 8:58 PM CDT
Nautical Twilight 5:39 AM CDT 9:31 PM CDT
Astronomical Twilight 5:04 AM CDT 10:06 PM CDT
Moon 11:43 PM CDT (7/27) 11:59 AM CDT (7/27)
Length of Visible Light 14h 45m
Length of Day
13h 51m
Waning Gibbous, 70% of the Moon is Illuminated
Jul 27
Waning Gibbous
Jul 29
Last Quarter
Aug 6
New
Aug 14
First Quarter
Aug 20
Full

Hourly Weather History & Observations

Time (CDT) Temp. Heat Index Dew Point Humidity Pressure Visibility Wind Dir Wind Speed Gust Speed Precip Events Conditions
12:39 AM 77.0 °F - 73.4 °F 89% 29.98 in 10.0 mi North 10.4 mph - N/A   Mostly Cloudy
12:53 AM 77.0 °F - 73.0 °F 88% 29.95 in 10.0 mi North 10.4 mph - N/A   Overcast
1:53 AM 75.9 °F - 71.1 °F 85% 29.95 in 10.0 mi NNE 13.8 mph - N/A   Overcast
2:00 AM 75.2 °F - 71.6 °F 89% 29.98 in 10.0 mi NNE 11.5 mph - N/A   Mostly Cloudy
2:25 AM 75.2 °F - 71.6 °F 89% 29.98 in 10.0 mi NNE 8.1 mph - N/A   Mostly Cloudy
2:53 AM 75.0 °F - 70.0 °F 84% 29.95 in 10.0 mi North 11.5 mph - N/A   Overcast
3:53 AM 73.0 °F - 70.0 °F 90% 29.96 in 10.0 mi North 8.1 mph - N/A   Overcast
4:14 AM 71.6 °F - 69.8 °F 94% 29.98 in 10.0 mi North 8.1 mph - N/A   Scattered Clouds
4:53 AM 71.1 °F - 69.1 °F 93% 29.96 in 10.0 mi North 8.1 mph - N/A   Partly Cloudy
5:06 AM 71.6 °F - 69.8 °F 94% 29.99 in 10.0 mi North 8.1 mph - N/A   Mostly Cloudy
5:53 AM 73.0 °F - 69.1 °F 87% 29.96 in 10.0 mi North 10.4 mph - N/A   Overcast
6:53 AM 72.0 °F - 69.1 °F 91% 29.97 in 10.0 mi North 10.4 mph - N/A   Overcast
7:39 AM 71.6 °F - 69.8 °F 94% 30.01 in 10.0 mi North 12.7 mph - N/A   Scattered Clouds
7:50 AM 73.4 °F - 69.8 °F 88% 30.01 in 10.0 mi NNE 10.4 mph - N/A   Mostly Cloudy
7:53 AM 73.0 °F - 69.1 °F 87% 29.99 in 10.0 mi NNE 11.5 mph - N/A   Mostly Cloudy
8:53 AM 73.9 °F - 66.0 °F 76% 30.00 in 10.0 mi NNE 12.7 mph - N/A   Overcast
9:53 AM 75.9 °F - 66.9 °F 74% 30.01 in 10.0 mi NE 11.5 mph - N/A   Mostly Cloudy
10:13 AM 78.8 °F - 68.0 °F 69% 30.04 in 10.0 mi NE 9.2 mph - N/A   Scattered Clouds
10:53 AM 79.0 °F - 68.0 °F 69% 30.01 in 10.0 mi NNE 6.9 mph - N/A   Partly Cloudy
11:53 AM 82.0 °F 84.9 °F 68.0 °F 62% 30.01 in 10.0 mi NE 9.2 mph 16.1 mph N/A   Partly Cloudy
12:53 PM 84.0 °F 86.5 °F 66.9 °F 56% 30.00 in 10.0 mi North 9.2 mph 16.1 mph N/A   Partly Cloudy
1:53 PM 84.0 °F 86.3 °F 66.0 °F 55% 29.99 in 10.0 mi NE 5.8 mph 16.1 mph N/A   Clear
2:53 PM 86.0 °F 87.6 °F 64.9 °F 49% 29.96 in 10.0 mi East 10.4 mph - N/A   Clear
3:53 PM 89.1 °F 90.0 °F 63.0 °F 42% 29.95 in 10.0 mi ENE 11.5 mph - N/A   Clear
4:53 PM 89.1 °F 90.3 °F 64.0 °F 43% 29.93 in 10.0 mi Variable 5.8 mph - N/A   Clear
5:53 PM 89.1 °F 90.3 °F 64.0 °F 43% 29.91 in 10.0 mi ESE 8.1 mph - N/A   Clear
6:53 PM 89.1 °F 89.0 °F 61.0 °F 39% 29.89 in 10.0 mi East 6.9 mph - N/A   Clear
7:53 PM 86.0 °F 85.7 °F 60.1 °F 41% 29.88 in 10.0 mi ENE 6.9 mph - N/A   Clear
8:53 PM 82.9 °F 83.7 °F 62.1 °F 49% 29.89 in 10.0 mi Calm Calm - N/A   Clear
9:53 PM 81.0 °F 81.9 °F 62.1 °F 52% 29.92 in 10.0 mi East 5.8 mph - N/A   Clear
10:53 PM 79.0 °F - 64.0 °F 60% 29.94 in 10.0 mi SE 9.2 mph - N/A   Clear
11:53 PM 77.0 °F - 66.0 °F 69% 29.95 in 10.0 mi SSE 9.2 mph - N/A   Clear